EHI
0 0 0 0 0 0 0 0 0 0 0 0 0 0 0 0 0 0 0 0 0 0 0 0 0 0 0 0 1 0 0 0 0 1 1 1 0 0 0 0 0 0 0 0
0 0 0 0 0 0 0 0 0 0 0 0 0 0 0 0 0 0 0 0 0 0 0 0 0 0 0 0 1 0 0 0 0 0 0 0 0 0 0 0 0 0 0 0
0 0 0 0 0 0 0 0 0 0 0 0 0 0 0 0 0 0 0 0 0 0 0 0 0 0 0 0 0 0 0 0 0 0 0 0 0 0 0 0 0 0 0 0
0 0 0 0 0 0 0 0 0 0 0 0 0 0 0 0 0 0 0 0 0 0 0 0 0 0 0 0 0 0 1 1 1 0 0 0 0 0 0 0 0 0 0 0
0 0 0 0 0 0 0 0 0 0 0 0 0 0 0 0 0 0 0 0 0 0 0 0 0 0 0 0 0 1 2 2 2 1 1 0 0 0 0 0 0 0 0 0
0 0 0 0 0 0 0 0 0 0 0 0 0 0 0 0 0 0 0 0 0 0 0 0 0 0 0 0 1 2 3 3 3 2 1 0 0 0 0 0 0 0 0 0
0 0 0 0 0 0 0 0 0 0 0 0 0 0 0 0 0 0 0 0 0 0 0 0 0 0 1 1 2 3 3 3 2 2 1 0 0 0 0 0 0 0 0 0
0 0 0 0 0 0 0 0 0 0 0 0 0 0 0 0 0 0 0 0 0 0 0 0 0 0 1 2 3 2 2 1 1 1 0 0 0 0 0 0 0 0 0 0
0 0 0 0 0 0 0 0 0 0 0 0 0 0 0 0 0 0 0 0 0 1 1 1 0 0 1 3 3 2 1 0 0 0 0 0 0 0 0 0 0 0 0 0
0 0 0 0 0 0 0 0 0 0 0 0 0 0 0 0 0 0 0 0 0 1 2 2 1 0 1 2 3 3 2 1 0 0 0 0 0 0 0 0 0 0 0 0
0 0 0 0 0 0 0 0 0 0 0 0 0 0 0 0 0 0 0 0 0 0 1 2 2 1 1 2 3 3 3 2 0 0 0 0 0 0 0 0 0 0 0 0
0 0 0 0 0 0 0 0 0 0 0 0 0 0 0 0 0 0 0 0 0 0 0 1 1 1 2 2 3 3 3 1 0 0 0 0 0 0 0 0 0 0 0 0
0 0 0 0 0 0 0 0 0 0 0 0 0 0 0 0 0 0 0 0 0 0 0 0 0 1 1 2 3 3 2 1 0 0 0 0 0 0 0 0 0 0 0 0
0 0 0 0 0 0 0 0 0 0 0 0 0 0 0 0 0 0 0 0 0 0 0 0 0 0 0 1 1 2 1 0 0 1 1 0 0 0 0 0 0 0 0 0
0 0 0 0 0 0 0 0 0 0 0 0 0 0 0 0 0 0 0 0 0 0 0 0 0 0 1 1 1 1 1 1 1 2 1 0 0 0 0 0 0 0 0 0
0 0 0 0 0 0 0 0 0 0 0 0 0 0 0 0 0 0 0 0 0 0 0 0 0 0 1 2 2 2 2 2 2 2 1 0 0 0 0 0 0 0 0 0
0 0 0 0 0 0 0 0 0 0 0 0 0 0 0 0 0 0 0 0 0 0 0 0 0 0 0 1 3 3 3 3 3 1 0 0 0 0 0 0 0 0 0 0
0 0 0 0 0 0 0 0 0 0 0 0 0 0 0 0 0 0 0 0 0 0 0 1 1 1 1 1 3 3 3 3 3 1 1 1 1 1 1 1 0 0 0 0
0 0 0 0 0 0 0 0 0 0 0 0 0 0 0 0 0 0 0 0 0 0 1 2 2 2 2 3 3 3 3 3 3 3 2 2 2 2 2 1 0 0 0 0
0 0 0 0 0 0 0 0 0 0 0 0 0 0 0 0 0 0 0 0 0 0 1 2 3 3 3 3 3 3 3 3 3 3 3 3 3 3 3 1 0 0 0 0
0 0 0 0 0 0 0 0 0 0 0 0 0 0 0 0 0 0 0 0 0 0 0 1 1 2 2 2 2 3 3 2 2 2 2 2 2 2 2 1 0 0 0 0
0 0 0 0 0 0 0 0 0 0 0 0 0 0 0 0 0 0 0 0 0 0 0 0 0 1 1 0 1 2 1 1 1 1 1 1 1 1 1 0 0 0 0 0
0 0 0 0 0 0 0 0 0 0 0 0 0 0 0 0 0 0 0 0 0 0 0 0 0 0 0 0 0 0 0 0 0 0 0 0 0 0 0 0 0 0 0 0
0 0 0 0 0 0 0 0 0 0 0 0 0 0 0 0 0 0 0 0 0 0 0 0 0 0 0 0 0 0 0 0 0 0 0 0 0 0 0 0 0 0 0 0
0 0 0 0 0 0 0 0 0 0 0 0 0 0 0 0 0 0 0 0 0 0 0 0 0 0 0 0 0 0 0 0 0 0 0 0 0 0 0 0 0 0 0 0
0 0 0 0 0 0 0 0 0 0 0 0 0 0 0 0 0 0 0 0 0 0 0 0 0 0 0 0 0 0 0 0 0 0 0 0 0 0 0 0 0 0 0 0
Wind_Speed
2 3 3 3 1 1 3 4 3 2 2 2 3 3 4 5 5 4 4 4 5 5 5 4 4 4 4 4 4 4 5 4 4 2 2 2 2 1 2 2 2 2 1 2
5 3 2 2 3 4 4 4 3 3 2 2 2 3 4 5 5 4 4 5 6 5 6 6 5 5 4 4 4 4 4 4 4 2 1 1 2 1 2 2 2 1 2 2
2 3 3 4 4 4 3 3 2 2 2 3 3 4 6 6 5 4 4 4 5 5 6 6 6 5 5 4 4 3 4 4 4 3 2 2 2 2 2 2 2 1 2 2
3 3 4 4 3 3 3 1 3 4 4 2 4 2 4 5 6 5 5 5 5 5 6 6 5 5 5 4 4 4 4 4 4 4 3 4 3 2 2 2 2 2 2 3
3 3 3 3 1 2 1 2 3 4 4 3 4 4 2 3 4 5 5 5 5 5 6 6 5 5 4 4 4 3 4 4 3 3 3 3 2 2 2 2 3 2 2 2
3 2 1 0 1 2 4 4 4 5 5 4 2 4 1 2 3 3 4 5 5 6 6 6 5 4 4 4 4 4 4 4 3 3 3 3 3 3 3 3 2 2 2 2
4 4 3 3 4 5 5 5 4 5 4 1 1 4 1 2 1 1 2 4 4 5 6 6 6 5 4 4 5 5 5 5 5 4 4 3 3 3 3 3 3 2 2 2
3 4 4 3 3 3 4 5 4 3 2 0 3 3 1 2 1 1 2 3 4 5 6 6 6 6 5 5 5 5 5 5 5 4 4 3 3 2 2 2 2 2 1 1
2 3 4 1 1 3 3 3 3 5 3 4 2 2 2 1 1 1 2 3 3 4 5 5 6 6 5 5 5 5 5 5 5 5 5 4 4 3 3 2 2 2 2 2
2 2 3 3 4 1 3 1 3 5 4 3 2 3 0 2 1 1 2 3 3 4 4 5 5 5 5 5 5 5 5 5 5 5 4 3 4 4 3 3 3 3 2 3
4 3 4 5 4 3 4 4 4 3 4 5 3 1 3 2 1 1 2 2 3 3 3 4 4 4 4 5 5 5 5 5 5 5 4 5 4 4 4 3 3 3 3 3
2 4 3 2 2 2 3 4 5 5 4 5 5 1 4 0 1 1 1 2 2 3 3 3 3 3 4 4 4 4 5 5 5 4 4 4 4 4 4 4 4 4 3 3
2 5 4 4 6 5 4 4 5 5 5 5 6 1 4 1 0 0 1 1 2 2 3 3 3 4 4 4 4 4 4 4 5 4 4 4 4 4 4 4 4 3 3 3
4 5 5 5 3 1 4 5 6 7 6 6 7 6 3 3 3 2 1 2 1 2 3 3 3 4 4 4 4 4 4 4 5 5 5 4 4 4 4 4 4 4 4 4
4 6 5 5 4 4 6 7 8 10 9 9 7 7 7 5 4 3 2 2 2 2 3 3 3 3 4 4 4 4 4 4 4 5 5 4 4 4 4 4 4 4 4 4
4 5 5 6 5 5 8 9 9 10 10 10 10 9 5 4 3 3 2 2 3 3 3 3 3 3 4 4 5 5 5 4 4 4 4 4 3 4 4 4 4 4 4 4
4 6 7 7 4 6 9 7 8 8 7 8 8 5 3 3 3 2 2 3 3 3 3 4 4 4 4 4 4 5 5 4 5 5 4 4 4 4 4 4 4 4 5 5
6 7 5 6 6 9 0 2 3 5 5 6 6 4 4 4 2 2 2 2 2 2 3 3 4 3 3 3 4 4 4 5 5 4 5 5 5 5 5 5 5 5 5 5
6 6 5 5 7 7 3 3 3 5 5 4 6 4 2 1 2 2 1 2 2 3 3 3 3 3 3 3 4 4 4 4 4 4 5 5 5 5 5 5 6 5 5 5
4 6 7 6 7 7 1 2 1 5 5 1 2 2 2 3 5 1 2 2 3 3 2 2 2 3 3 3 4 4 5 5 5 5 5 5 5 5 6 6 6 5 5 6
6 6 8 9 9 6 2 1 3 6 2 2 1 1 2 3 4 3 2 3 3 3 2 3 3 3 3 4 4 5 5 6 5 5 5 5 6 6 6 5 5 5 5 6
6 6 7 7 9 5 3 2 3 4 4 1 2 2 3 3 3 3 3 3 3 3 3 3 3 3 3 4 5 6 6 5 5 5 5 5 6 5 5 5 5 5 5 5
6 5 4 5 3 3 0 2 4 5 4 4 3 3 3 4 4 4 4 4 4 4 3 3 3 3 4 4 5 6 5 4 5 5 5 5 6 5 5 5 5 5 5 5
5 3 6 7 6 4 3 3 3 4 5 5 4 4 4 5 5 5 4 4 4 4 3 3 4 4 4 4 5 6 5 5 5 6 6 5 5 5 5 4 4 5 5 5
4 4 6 8 6 5 4 4 5 4 4 5 5 5 5 6 6 5 5 5 4 4 4 4 4 5 5 4 5 5 5 5 5 6 5 5 5 5 5 5 4 5 5 4
6 7 8 7 5 6 5 5 5 5 5 5 6 6 6 5 6 6 5 5 4 4 4 4 5 5 5 5 5 5 5 5 6 5 5 4 4 4 4 4 4 3 5 4
Wind_Direction
158 171 154 145 185 195 170 176 166 123 133 206 205 191 183 181 196 199 189 188 177 171 169 164 163 162 161 161 159 148 154 154 157 155 161 158 149 147 124 116 112 130 139 127
165 146 132 135 151 171 179 177 162 132 134 218 207 221 193 187 203 212 214 201 185 179 175 167 174 168 174 168 166 162 162 163 165 165 176 164 152 148 113 118 123 146 150 135
157 102 143 165 168 182 194 212 195 180 169 194 229 211 193 184 199 203 219 218 199 194 191 176 178 176 178 181 179 174 173 169 165 166 166 157 151 159 156 140 124 128 134 130
122 129 167 184 189 227 199 198 203 196 218 193 245 257 182 187 193 197 204 204 199 196 197 184 184 183 182 180 180 181 179 175 168 168 179 182 185 169 150 133 131 137 133 133
125 158 185 201 217 248 73 138 195 216 239 236 217 258 161 173 210 209 206 206 203 195 193 188 190 188 182 174 179 187 175 173 169 171 173 199 180 150 138 142 147 147 132 138
124 147 272 76 104 177 159 175 182 211 236 237 224 250 200 164 248 230 199 201 199 194 190 191 184 183 180 171 175 181 181 169 165 171 176 189 175 175 165 163 160 165 147 148
155 148 150 175 166 167 216 231 218 206 211 204 147 246 293 54 346 271 209 193 191 188 188 189 186 187 186 182 181 184 186 179 175 176 183 187 188 189 190 183 174 185 164 161
192 156 157 194 236 220 220 263 288 295 285 192 196 243 82 64 4 282 197 182 176 179 187 191 192 193 191 189 189 191 188 184 179 185 183 187 189 193 193 196 188 191 177 156
225 133 122 142 266 255 220 231 310 290 278 264 207 184 170 120 162 165 164 172 181 184 188 192 193 196 195 192 193 196 189 186 185 190 189 187 190 192 190 192 190 190 184 163
283 206 145 154 183 132 298 249 227 252 275 266 226 226 197 127 144 160 179 190 196 195 191 192 193 197 196 193 193 194 192 189 186 190 191 186 194 190 193 194 191 187 182 172
251 234 169 183 217 215 185 202 238 252 277 288 287 98 53 26 46 211 197 194 201 202 196 194 194 193 189 187 189 192 191 189 188 190 188 187 189 188 191 195 191 191 190 187
241 268 228 182 118 309 253 248 242 257 246 255 280 52 90 53 349 277 235 193 197 202 195 189 185 183 184 188 189 190 192 187 185 188 188 192 187 191 198 196 196 196 190 188
184 248 238 184 175 182 211 220 236 259 266 250 257 181 106 116 312 305 268 239 201 194 193 177 177 187 188 190 190 188 190 190 182 182 188 193 195 197 202 202 196 201 196 193
238 251 268 288 342 273 229 218 222 235 250 254 252 271 270 293 311 315 284 250 222 198 184 177 182 193 195 194 192 189 187 187 184 180 190 199 202 202 204 206 202 205 202 201
245 256 258 275 289 272 266 253 233 237 253 266 273 276 284 296 298 293 250 220 211 198 186 185 191 193 193 195 194 191 190 187 187 187 194 202 202 202 206 203 204 205 206 212
246 257 256 253 252 257 261 258 245 242 249 254 264 272 289 298 283 259 226 212 217 209 202 197 196 194 200 200 198 194 195 194 191 194 197 197 199 197 205 205 203 204 204 214
221 243 254 259 252 261 254 250 239 231 234 248 258 273 288 283 282 268 248 229 231 233 226 216 207 202 207 207 204 201 199 192 196 201 201 196 198 197 204 201 201 207 209 210
238 238 252 266 255 251 338 76 247 243 251 250 262 285 293 298 307 287 263 251 254 258 249 237 226 210 209 205 200 200 198 198 203 208 209 202 203 202 204 206 208 214 218 212
246 235 240 250 259 265 251 220 228 245 253 250 255 266 279 291 248 209 208 277 284 279 272 253 239 220 206 202 197 196 199 202 208 217 220 211 208 208 210 215 218 221 222 222
206 233 242 240 256 264 289 106 239 256 247 98 267 266 257 238 258 298 12 320 304 298 282 263 238 224 217 209 201 204 209 213 220 225 231 224 216 213 216 224 226 221 223 228
193 211 232 245 253 263 17 99 206 239 334 65 321 291 246 259 313 359 339 315 304 291 281 264 241 230 226 216 208 214 219 225 229 230 235 230 221 221 223 229 230 228 228 232
234 228 230 238 246 250 87 173 235 322 4 325 307 297 283 298 319 316 303 299 295 286 273 259 245 240 232 221 218 227 233 236 231 226 229 229 225 222 222 226 234 234 229 230
235 251 259 243 271 20 69 277 318 325 307 309 306 307 298 293 294 295 292 293 293 287 274 259 249 246 237 227 226 233 238 238 232 225 231 232 227 222 225 225 226 228 227 231
225 239 245 249 251 261 258 270 291 304 307 315 314 308 293 287 287 286 287 288 288 282 275 263 252 248 245 237 235 239 237 233 231 229 232 230 224 223 224 227 228 226 226 228
256 223 240 251 261 264 250 266 287 295 298 303 305 301 295 288 283 280 280 281 283 280 275 266 261 259 257 247 240 242 233 226 232 234 236 233 225 226 227 226 234 233 234 240
230 235 246 259 265 271 276 288 293 289 288 288 293 297 296 292 287 283 280 280 279 275 272 268 265 260 256 247 239 235 227 224 230 233 235 231 226 222 226 231 232 228 237 237